Regional Weather Roundup
Issued by NWS

Home | Current Version | Previous Version | Text Only | Print | Product List | Glossary On
Versions: 1 2 3 4 5 6 7 8 9 10 11 12 13 14 15 16 17 18 19 20 21 22 23 24 25 26 27 28 29 30 31 32 33 34 35 36 37 38 39 40 41 42 43 44 45 46 47 48 49 50
000
ASUS44 KFWD 250615
RWRTX
NORTH TEXAS HOURLY WEATHER ROUNDUP
NATIONAL WEATHER SERVICE FORT WORTH TX
100 AM CDT MON MAY 25 2015

NOTE: "FAIR" INDICATES FEW OR NO CLOUDS BELOW 12,000 FEET WITH NO
SIGNIFICANT WEATHER AND/OR OBSTRUCTIONS TO VISIBILITY.

TXZ118-119-250700-
DALLAS/FORT WORTH METROPLEX

CITY           SKY/WX    TMP DP  RH WIND       PRES   REMARKS
DFW AIRPORT    PTCLDY    70  69  97 S12       29.87F
6HR MIN TEMP:  68; 6HR MAX TEMP:  74;

DALLAS LOVE    PTCLDY    73  69  87 S15       29.89S
6HR MIN TEMP:  73; 6HR MAX TEMP:  77;

FTW MEACHAM    CLEAR     72  69  90 SE8       29.87F
6HR MIN TEMP:  71; 6HR MAX TEMP:  77;

DAL-EXECUTIVE  PTCLDY    71  69  93 S8        29.89S
6HR MIN TEMP:  70; 6HR MAX TEMP:  75;

FTW-ALLIANCE   PTCLDY    70  69  97 S9        29.87F
6HR MIN TEMP:  69; 6HR MAX TEMP:  75;

FTW-NAS-JRB    CLEAR     73  70  90 SE9       29.88F
6HR MIN TEMP:  71; 6HR MAX TEMP:  77;

FTW-SPINKS     CLEAR     71  69  93 S5        29.90S
6HR MIN TEMP:  70; 6HR MAX TEMP:  77;

ARLINGTON      PTCLDY    74  68  81 SE10      29.88F
6HR MIN TEMP:  72; 6HR MAX TEMP:  78;

GRAND PRAIRIE  PTCLDY    73  73 100 SE8       29.90F
6HR MIN TEMP:  72; 6HR MAX TEMP:  76;

ADDISON        CLEAR     73  72  96 S10       29.90S
6HR MIN TEMP:  72; 6HR MAX TEMP:  78;

MESQUITE       CLEAR     71  70  97 SE7       29.90F
6HR MIN TEMP:  71; 6HR MAX TEMP:  77;

LANCASTER      CLEAR     70  67  90 S6        29.91S
6HR MIN TEMP:  70; 6HR MAX TEMP:  76;

$$

TXZ091>094-102>105-117-120-121-131>134-250700-
NORTH CENTRAL TEXAS

CITY           SKY/WX    TMP DP  RH WIND       PRES   REMARKS
SHRMAN/DENISON CLEAR     71  70  98 S12       29.88F
6HR MIN TEMP:  69; 6HR MAX TEMP:  77;

GAINESVILLE    CLEAR     66  65  96 SE5       29.90S
6HR MIN TEMP:  66; 6HR MAX TEMP:  76;

BOWIE          CLEAR     65  65 100 SE6       29.86F
6HR MIN TEMP:  65; 6HR MAX TEMP:  74;

BRIDGEPORT     CLEAR     69  69 100 SE6       29.88F
6HR MIN TEMP:  68; 6HR MAX TEMP:  78;

DECATUR        CLEAR     68  67  96 SE10      29.88S
6HR MIN TEMP:  67; 6HR MAX TEMP:  75;

DENTON         CLEAR     69  67  93 SE8       29.87F
6HR MIN TEMP:  67; 6HR MAX TEMP:  77;

MCKINNEY       MOCLDY    71  70  96 S10       29.89F
6HR MIN TEMP:  70; 6HR MAX TEMP:  76;

GREENVILLE     CLOUDY    72  70  94 SE8       29.91S
ROCKWALL       CLOUDY    71  71  99 S9        29.89S
6HR MIN TEMP:  71; 6HR MAX TEMP:  77;

TERRELL        CLOUDY    71  70  96 SE8       29.91S
6HR MIN TEMP:  71; 6HR MAX TEMP:  77;

WAXAHACHIE     PTCLDY    71  71 100 S7        29.91S
6HR MIN TEMP:  71; 6HR MAX TEMP:  76;

CLEBURNE       CLEAR     70  70 100 SE7       29.91S
GRANBURY       PTCLDY    71  69  92 SE8       29.88F
6HR MIN TEMP:  71; 6HR MAX TEMP:  78;

$$

TXZ083>090-098>101-113>116-127>130-139>142-154-155-250700-
WESTERN NORTH TEXAS

CITY           SKY/WX    TMP DP  RH WIND       PRES   REMARKS
WICHITA FALLS  CLEAR     68  66  93 S12       29.83F
6HR MIN TEMP:  68; 6HR MAX TEMP:  78;

WF-KICKAPOO    CLEAR     69  66  90 SE10      29.84F
6HR MIN TEMP:  69; 6HR MAX TEMP:  81;

VERNON         CLEAR     69  61  76 S13       29.82S
6HR MIN TEMP:  63; 6HR MAX TEMP:  85;

ABILENE        CLEAR     69  66  90 SE15      29.85F
6HR MIN TEMP:  69; 6HR MAX TEMP:  81;

ABILENE-DYESS  CLEAR     69  62  79 S10       29.83F
6HR MIN TEMP:  69; 6HR MAX TEMP:  82;

BRECKENRIDGE   CLEAR     73  65  78 S13G18    29.84S
6HR MIN TEMP:  72; 6HR MAX TEMP:  79;

GRAHAM         CLEAR     68  67  98 SE8       29.84S
6HR MIN TEMP:  68; 6HR MAX TEMP:  80;

MINERAL WELLS  CLEAR     69  67  93 SE9       29.86F
6HR MIN TEMP:  68; 6HR MAX TEMP:  78;

STEPHENVILLE   CLEAR     70  67  89 S8        29.91F
6HR MIN TEMP:  70; 6HR MAX TEMP:  78;

COMANCHE       CLEAR     67  67 100 SE6       29.90S
6HR MIN TEMP:  67; 6HR MAX TEMP:  78;

BROWNWOOD      CLEAR     68  66  94 S9        29.89S
COLEMAN        CLEAR     69  67  93 S12       29.88F
6HR MIN TEMP:  69; 6HR MAX TEMP:  80;

BRADY          CLEAR     68  66  94 SE5       29.89F
$$

TXZ143>147-156>162-174-175-250700-
CENTRAL TEXAS

CITY           SKY/WX    TMP DP  RH WIND       PRES   REMARKS
WACO           LGT RAIN  72  68  87 S14       29.90S
6HR MIN TEMP:  72; 6HR MAX TEMP:  80; 6HR PCP: TRACE;

WACO-MCGREGOR  CLEAR     70  64  83 S12       29.91S
6HR MIN TEMP:  70; 6HR MAX TEMP:  79;

HILLSBORO      CLEAR     70  67  88 SE9       29.90S
6HR MIN TEMP:  70; 6HR MAX TEMP:  78;

CORSICANA      CLEAR     71  69  93 SE9       29.92S
6HR MIN TEMP:  71; 6HR MAX TEMP:  78; 6HR PCP:  0.02;

MEXIA          CLEAR     69  68  96 SE10G16   29.91S
6HR MIN TEMP:  69; 6HR MAX TEMP:  76; 6HR PCP:  0.14;

HEARNE         CLEAR     70  69  96 SE7       29.92F
6HR MIN TEMP:  70; 6HR MAX TEMP:  79;

CAMERON        CLEAR     72  69  90 S7        29.91S
6HR MIN TEMP:  72; 6HR MAX TEMP:  80;

TEMPLE         CLEAR     70  64  83 SE9       29.90S
6HR MIN TEMP:  70; 6HR MAX TEMP:  79;

KILLEEN        CLOUDY    70  69  95 SE13      29.89F
6HR MIN TEMP:  70; 6HR MAX TEMP:  80;

KILLEEN-SKYLRK CLOUDY    72  66  83 SE9       29.90F
6HR MIN TEMP:  72; 6HR MAX TEMP:  81;

GATESVILLE     PTCLDY    72  70  94 SE8       29.92S
HAMILTON       CLEAR     70  70 100 S15G22    29.91S
LAMPASAS       CLOUDY    71  69  94 SE6       29.90S
6HR MIN TEMP:  71; 6HR MAX TEMP:  78;

$$

TXZ095>097-106>112-122>126-135>138-148>153-164>167-250700-
EAST TEXAS

CITY           SKY/WX    TMP DP  RH WIND       PRES   REMARKS
PARIS          CLOUDY    70  64  83 S10       29.92S
6HR MIN TEMP:  70; 6HR MAX TEMP:  73;

SULPHUR SPRNGS CLOUDY    72  70  94 S9        29.94S
6HR MIN TEMP:  71; 6HR MAX TEMP:  76;

MOUNT PLEASANT PTCLDY    69  69  98 SE8       29.94F
6HR MIN TEMP:  69; 6HR MAX TEMP:  75;

GILMER         MOCLDY    68  68  99 SE3       29.94F
6HR MIN TEMP:  68; 6HR MAX TEMP:  73;

MINEOLA        MOCLDY    70  70 100 SE5       29.93F
TYLER          CLOUDY    70  69  97 S9        29.93S
6HR MIN TEMP:  70; 6HR MAX TEMP:  72; 6HR PCP: TRACE;

LONGVIEW       MOCLDY    71  68  90 SE9       29.93F
6HR MIN TEMP:  70; 6HR MAX TEMP:  74; 6HR PCP:  0.02;

MARSHALL       MOCLDY    73  71  92 CALM      29.98S
6HR MIN TEMP:  73; 6HR MAX TEMP:  76; 6HR PCP:  0.14;

ATHENS         MOCLDY    68  68 100 SE5       29.91S
PALESTINE      PTCLDY    71  70  97 SE6       29.94S FOG
JACKSONVILLE   CLOUDY    71  69  96 S9        29.96S
HENDERSON      MOCLDY    69  69  99 S5        29.95F
6HR MIN TEMP:  69; 6HR MAX TEMP:  73;

NACOGDOCHES    CLOUDY    70  68  94 S7        29.95S
6HR MIN TEMP:  70; 6HR MAX TEMP:  73;

LUFKIN         MOCLDY    72  69  90 SE7       29.95S
6HR MIN TEMP:  72; 6HR MAX TEMP:  78;

$$

SUPPLEMENTAL OBSERVATIONS (CENTRAL)

CITY           SKY/WX    TMP DP  RH WIND       PRES   REMARKS
LAKE TEXOMA      N/A     66  64  94 E5          N/A
CADDO GRASSLND   N/A     70  66  88 S7          N/A
PAT MAYSE LAKE   N/A     70  68  94 SE12        N/A
GREENVILLE       N/A     72  68  88 S8          N/A
CEDAR HILL       N/A     72  68  88 SE9         N/A
ATHENS           N/A     72  68  88 S10         N/A
LAKE LIMESTONE   N/A     70  66  88 S3          N/A


USA.gov is the U.S. government's official web portal to all federal, state and local government web resources and services.